星链-3941 (STARLINK-3941 )

导读

STARLINK-3941是美国SpaceX星链互联网卫星项目中的一颗卫星,于2022年5月14日发射入轨,属于星链低轨星座组网卫星。它运行在近地轨道,旨在为全球提供低延迟、高速率的宽带互联网服务,尤其覆盖偏远、网络基础设施薄弱区域,助力星链全球卫星互联网组网架构搭建。

Basic Information
目录编号:
52638
目录名称:
STARLINK-3941
国际标识:
2022-052AS
轨道中心:
EARTH
卫星名称:
星链-3941
卫星全名:
星链-3941 (STARLINK-3941 )
卫星状态:
在轨 (已飞行1575 天)
发射日期:
2022-05-14 UTC
国别 :
美国 (US)
星等 :
--
Orbit Information
数据来源 国际轨道数据
星历时间: 2026-09-05T11:54:10+0800
8小时前
查看轨道信息
半长轴: 6840.915km
偏心率: 0.0001321
轨道倾角: 53.163°
近地点辐角 82.406°
升交点赤经 171.130°
平近点角 277.709°
近地点: 461.874km
远地点: 463.682km
周期: 93.849分钟
每日圈数: 15.343749
Detailed Information
固有亮度:
5
最大亮度:
2.5
卫星平台:
Starlink v1.5
覆盖范围:
全球
运营商:
太空探索技术公司
运营商所在国:
美国
制造商(研发单位):
太空探索技术公司
制造商所在国:
美国
使用方式:
暂无
Satellite Introduction
星链(Starlink)计划是由太空探索技术公司(SpaceX)提出的一个巨型低轨卫星互联网星座项目,计划在2019年至2024年间在太空搭建由约1.2万颗卫星组成的“星链”网络,其中1584颗将部署在地球上空550千米处的近地轨道,并从2020年开始工作。该卫星仍在工作。
2D Orbit Map
3D Orbit Map
Orbit Altitude Analysis Chart
Orbit Inclination Analysis Chart
Orbit Comprehensive Analysis Chart
View Comprehensive Chart
Conjunction Data List
Event ID Objects TCA Miss Dist (km) Collision Risk Probability Collision Risk Index (CRI) Action
CDM_260907-075105-263806-818021
2026-09-07T
07:51:09+0000
0.338 km
远距离
1.773855E-4 高风险 0.8
CDM_260907-200305-263806-467021
2026-09-07T
20:03:44+0000
0.575 km
远距离
1.292302E-4 高风险 0.77
CDM_260907-163505-263806-855121
2026-09-07T
16:35:08+0000
0.637 km
远距离
7.103166E-5 中风险 0.72
CDM_260907-092205-263806-476221
2026-09-07T
09:22:57+0000
0.644 km
远距离
5.171235E-5 中风险 0.69
CDM_260907-151405-263806-265921
2026-09-07T
15:14:28+0000
0.826 km
远距离
5.123441E-5 中风险 0.69
CDM_260907-162505-263806-476221
2026-09-07T
16:25:01+0000
0.748 km
远距离
3.248195E-5 中风险 0.65
CDM_260907-235805-263806-285821
2026-09-07T
23:58:39+0000
0.939 km
远距离
2.913807E-5 中风险 0.64
CDM_260907-165605-263806-286221
2026-09-07T
16:56:55+0000
0.992 km
远距离
2.412264E-5 中风险 0.63
CDM_260907-183005-263806-286221
2026-09-07T
18:30:42+0000
1.474 km
极远距离
6.156566E-6 低风险 0.51
CDM_260907-101105-263806-818021
2026-09-07T
10:11:50+0000
1.084 km
极远距离
5.811404E-6 低风险 0.5